Wind_Speed
10 14 19 24 22 20 18 18 19 19 20 21 22 23 24 24 22 24 23 25 26 27 30 30 30 29 30 27 25 24 21 23 19 11 8 18 20 19 15 15 11 7 6 6 8
12 15 22 23 20 19 18 18 18 18 19 20 21 23 25 26 25 24 22 23 27 29 29 31 31 32 32 29 28 27 26 24 9 10 6 16 27 20 20 19 14 10 8 7 8
11 16 22 21 20 19 19 19 18 18 19 21 23 24 27 27 27 27 23 23 26 32 30 32 32 33 33 31 30 29 29 26 19 9 10 17 26 21 22 20 16 10 8 7 9
12 17 22 22 21 20 19 18 17 18 19 20 22 24 26 29 23 19 17 21 26 28 31 33 35 35 35 36 31 29 28 29 25 18 10 23 24 23 20 16 15 11 8 8 10
13 17 22 22 21 20 18 18 18 18 19 20 22 25 25 28 23 25 30 23 23 28 30 35 37 34 35 34 32 32 29 30 24 20 17 17 23 23 21 17 16 9 8 9 10
14 16 20 20 20 18 16 16 17 18 20 22 23 25 26 28 24 26 29 29 29 25 30 36 38 33 28 29 32 30 28 29 25 18 22 19 21 24 20 16 16 10 8 8 11
18 17 19 19 20 17 16 16 18 19 21 23 25 25 24 25 23 22 26 25 31 29 28 36 33 34 26 28 22 21 28 28 27 19 13 23 21 23 14 13 14 11 10 9 12
22 21 20 19 19 17 16 16 17 19 20 22 23 24 23 20 21 19 25 21 31 28 25 33 35 32 30 21 21 23 23 22 28 28 21 22 21 26 22 19 17 12 12 8 12
22 23 21 19 16 16 17 17 17 18 20 21 19 23 14 12 14 17 19 18 23 30 25 32 36 35 34 22 21 27 23 25 20 27 29 22 25 24 23 23 22 15 8 6 8
21 21 22 18 16 19 23 19 18 19 18 19 20 20 17 18 18 17 18 16 19 23 26 35 36 34 37 29 34 29 23 26 26 24 22 22 23 25 25 23 23 22 23 16 16
19 18 18 18 20 27 24 21 18 22 14 16 20 19 17 14 13 2 2 9 16 25 26 34 31 36 36 29 27 23 26 20 20 21 22 20 19 26 24 21 27 33 29 29 26
18 15 14 15 17 23 26 30 31 26 13 19 21 18 9 12 8 0 3 12 15 21 22 22 24 25 29 26 28 23 24 24 27 24 21 20 23 19 20 22 22 23 22 17 22
17 14 12 13 16 20 26 28 30 20 12 17 20 12 8 10 7 2 4 5 4 15 22 24 23 26 29 28 25 26 27 25 23 21 22 19 20 19 18 21 20 24 23 23 22
15 13 11 12 15 19 24 25 25 17 6 16 20 16 11 12 8 4 7 6 4 16 21 22 23 24 29 28 27 30 30 26 18 21 18 19 5 15 16 18 23 22 24 26 25
15 13 10 12 14 20 23 22 16 14 5 16 17 18 13 12 5 5 4 7 4 8 16 16 20 24 28 30 25 27 20 22 21 25 19 18 7 15 18 19 21 20 21 22 22
13 15 10 11 13 16 19 16 12 9 5 13 23 15 13 9 9 6 8 4 11 6 12 19 15 20 24 27 25 21 18 21 19 21 5 14 21 10 19 18 15 18 18 17 15
12 12 10 12 13 12 17 16 8 7 16 15 30 12 10 12 8 7 6 2 12 5 7 13 9 16 12 22 25 25 25 6 3 4 5 12 16 23 14 13 15 14 14 14 15
12 11 9 11 12 12 15 17 4 15 20 17 20 11 9 9 6 10 7 3 8 5 4 3 3 5 11 12 21 25 26 10 6 5 4 8 10 9 26 19 17 17 16 13 10
12 10 11 13 9 12 13 13 7 16 24 20 26 16 5 8 10 12 3 0 3 5 5 4 8 11 12 17 16 19 15 13 3 2 3 6 9 9 18 23 20 17 15 11 9
10 8 12 11 11 12 12 10 8 18 25 23 16 11 14 15 13 8 7 5 4 3 4 4 3 8 8 9 18 12 16 7 5 3 3 4 7 11 18 24 20 14 12 11 10
10 8 9 11 10 11 12 8 8 12 19 17 18 12 14 15 10 6 8 5 5 1 5 2 5 3 7 11 12 10 17 10 6 4 4 2 6 12 14 11 10 10 10 9 9
8 7 8 9 10 8 10 12 13 10 9 14 15 15 12 14 12 6 7 10 4 1 2 2 6 5 8 8 13 16 11 14 6 4 4 1 4 6 7 8 9 7 7 8 11
9 8 9 7 9 8 11 11 8 8 8 13 15 17 14 13 9 8 10 14 9 4 3 5 3 3 2 6 12 13 14 15 19 12 6 3 4 7 10 11 11 8 9 11 12
10 5 8 9 10 12 11 10 13 11 10 12 14 16 14 13 8 10 15 12 11 8 5 5 7 5 6 3 4 11 15 14 13 10 12 10 11 12 12 12 10 10 12 13 17
11 8 11 7 6 6 6 8 9 12 14 11 16 16 15 18 17 11 14 13 9 7 9 8 7 7 6 3 3 2 5 17 21 20 14 14 11 8 7 9 9 11 15 18 18
12 10 12 13 16 17 16 16 13 13 12 10 15 14 16 20 18 16 14 13 9 6 8 11 6 8 9 8 10 12 11 10 13 14 18 14 13 11 8 11 14 16 16 18 21
16 16 15 15 14 18 15 19 18 18 15 9 13 16 16 17 16 14 13 13 12 10 6 9 10 7 4 6 6 10 13 16 16 16 14 19 19 19 17 14 13 14 16 20 23
Wind_Direction
335 338 338 334 328 322 316 311 308 305 302 298 294 290 285 279 273 266 256 241 235 229 224 220 217 219 220 216 219 222 222 232 230 222 272 225 204 198 207 233 234 256 282 311 325
333 337 339 336 331 323 318 315 313 310 305 300 297 293 288 283 276 267 261 249 236 230 222 215 217 220 219 216 217 219 222 230 207 222 264 202 204 207 208 228 233 234 256 290 311
331 338 341 339 335 330 326 322 320 318 315 312 309 304 298 291 284 276 266 250 241 232 219 214 213 218 218 215 215 220 222 226 216 207 206 210 207 218 228 231 236 245 258 292 310
332 339 345 346 341 336 332 327 325 325 323 322 320 316 310 301 299 291 272 242 237 234 223 214 210 215 216 217 211 218 219 225 229 217 199 199 210 238 230 234 239 242 271 306 311
332 342 348 346 342 339 336 332 330 327 324 321 318 315 312 311 300 264 258 246 234 223 222 215 212 212 216 218 217 218 220 227 226 220 222 220 212 220 229 234 237 242 271 304 313
331 336 345 346 345 340 335 332 329 325 321 318 314 312 314 311 308 276 258 248 243 231 215 211 210 207 216 220 220 220 217 225 226 213 216 212 199 207 232 228 229 231 256 295 306
332 332 342 347 350 346 339 336 332 325 322 319 315 315 316 309 306 281 261 240 232 228 218 208 202 202 204 210 217 210 220 225 220 217 233 209 196 206 206 210 220 237 244 273 282
333 336 340 347 355 356 354 356 351 348 341 334 326 323 321 304 305 277 260 236 227 229 222 208 192 198 200 188 199 206 220 218 219 217 220 203 206 206 219 212 213 226 244 268 286
335 336 335 344 1 9 3 3 1 356 347 347 347 339 329 305 300 283 263 229 220 225 220 197 191 195 195 192 197 200 201 203 197 214 225 220 222 228 225 207 227 220 228 265 285
335 338 334 345 2 5 353 353 354 355 350 352 348 345 339 317 298 300 274 235 203 208 208 188 195 197 195 196 200 195 198 204 209 214 224 223 223 227 229 220 225 245 257 260 272
337 339 340 347 2 10 12 3 352 4 358 359 350 347 334 328 313 270 310 197 179 196 200 189 197 203 202 205 207 209 208 207 212 224 234 238 233 228 224 233 241 253 253 263 271
337 338 340 343 356 6 9 2 1 355 19 21 8 351 10 14 25 192 175 162 183 199 198 192 209 204 202 201 207 209 212 219 224 228 227 229 237 250 227 245 250 252 250 242 252
340 336 336 335 336 339 348 355 355 356 349 14 6 8 15 10 33 60 159 150 195 189 193 200 208 200 205 199 199 206 218 225 229 221 212 229 246 242 238 239 240 237 239 247 258
344 334 329 326 331 334 344 352 351 358 358 4 6 0 335 341 43 4 290 219 230 192 190 203 205 208 206 210 211 222 221 223 210 207 202 217 238 240 240 230 239 242 246 246 264
341 332 327 317 323 338 349 355 354 358 13 353 344 342 342 344 345 317 324 249 301 200 193 201 206 202 206 212 212 228 232 227 221 212 208 202 214 245 229 236 241 242 242 247 264
336 332 331 311 313 332 341 349 357 12 324 341 347 340 342 329 343 333 350 300 311 213 198 216 204 197 213 216 218 221 202 199 209 185 216 200 211 241 237 240 245 242 242 240 267
327 332 322 311 320 323 341 347 350 14 343 343 0 338 345 339 3 359 50 272 10 357 200 209 212 208 197 210 216 212 183 120 191 206 214 214 219 233 249 238 231 239 243 259 274
323 326 308 299 316 326 337 347 345 353 351 334 351 309 349 21 37 353 3 39 7 14 27 61 324 241 196 193 197 183 187 184 173 185 214 197 213 238 228 229 229 235 245 260 255
322 319 305 307 306 315 337 344 337 342 352 345 15 59 58 5 5 7 32 261 33 50 48 240 219 206 192 190 179 186 184 198 116 138 149 199 226 229 211 214 218 225 236 238 242
313 316 299 303 300 305 320 325 331 335 341 353 358 352 340 334 353 16 32 16 39 355 301 319 324 200 191 177 208 202 198 196 203 152 223 251 241 220 225 217 214 218 219 224 228
304 315 308 307 298 291 291 291 323 335 322 345 348 342 343 342 345 8 339 358 36 306 339 317 320 294 194 205 194 184 199 221 234 238 166 187 249 237 233 233 212 200 219 222 231
295 300 297 295 295 306 293 283 305 333 332 329 351 340 342 332 332 308 316 325 340 228 118 60 330 336 223 229 218 221 216 205 209 216 220 211 253 191 168 175 204 218 212 237 246
294 280 285 288 287 288 288 267 280 328 359 326 338 349 337 320 312 328 314 332 322 290 215 241 254 317 281 242 223 225 226 231 234 247 242 183 249 232 220 211 221 237 254 265 259
299 265 261 271 266 274 288 270 249 271 290 319 329 333 330 347 323 287 305 319 310 304 287 280 243 244 256 289 233 225 229 224 227 232 241 249 266 249 236 234 246 258 275 291 299
314 278 260 240 240 229 292 310 309 301 283 309 303 316 318 322 329 298 302 314 309 263 245 244 243 243 242 267 265 248 230 227 236 245 245 258 241 251 249 251 263 278 285 292 291
316 299 280 263 252 253 259 262 277 288 303 314 317 303 305 311 308 300 292 301 315 290 249 239 245 242 248 248 252 256 253 235 233 238 238 240 250 264 232 242 259 275 278 282 286
304 305 299 289 264 261 254 252 256 273 272 289 301 300 304 308 305 300 294 285 278 273 273 235 229 240 245 225 263 273 248 244 246 249 250 250 263 264 260 261 263 275 282 286 287
Height
3159 3157 3154 3150 3146 3143 3141 3139 3137 3135 3133 3132 3131 3130 3129 3129 3130 3130 3132 3134 3135 3136 3140 3144 3148 3149 3151 3155 3158 3159 3162 3162 3164 3166 3166 3167 3168 3170 3171 3169 3171 3172 3172 3173 3172
3157 3154 3151 3147 3144 3141 3138 3136 3133 3132 3130 3128 3127 3125 3123 3124 3124 3125 3127 3128 3129 3130 3134 3138 3142 3144 3147 3150 3153 3153 3157 3158 3163 3163 3163 3163 3165 3166 3168 3168 3169 3171 3171 3171 3171
3155 3152 3149 3145 3141 3138 3134 3132 3129 3127 3125 3123 3122 3121 3119 3118 3118 3118 3120 3121 3122 3122 3127 3131 3135 3137 3141 3145 3147 3148 3152 3156 3158 3160 3161 3163 3164 3166 3166 3167 3168 3170 3170 3169 3169
3152 3149 3146 3142 3138 3134 3131 3129 3126 3123 3121 3119 3117 3115 3113 3113 3117 3114 3113 3113 3115 3117 3122 3124 3127 3130 3135 3138 3142 3145 3149 3151 3154 3157 3158 3160 3162 3164 3164 3166 3166 3167 3168 3167 3166
3149 3146 3143 3139 3135 3131 3128 3126 3124 3121 3118 3115 3113 3110 3108 3107 3110 3105 3104 3108 3108 3109 3114 3119 3122 3126 3130 3134 3139 3139 3145 3147 3149 3153 3155 3156 3158 3161 3161 3162 3163 3164 3164 3164 3164
3149 3146 3144 3139 3135 3131 3128 3125 3122 3119 3116 3112 3108 3106 3103 3101 3102 3099 3097 3100 3103 3104 3108 3112 3116 3124 3128 3131 3134 3136 3141 3144 3146 3148 3150 3153 3155 3156 3157 3159 3160 3161 3161 3160 3160
3150 3146 3142 3138 3133 3128 3125 3122 3119 3116 3112 3107 3103 3100 3099 3094 3094 3093 3089 3093 3094 3098 3102 3106 3115 3119 3123 3126 3130 3132 3137 3139 3141 3144 3146 3150 3152 3153 3153 3155 3157 3159 3159 3158 3158
3149 3145 3140 3135 3130 3126 3123 3119 3116 3112 3108 3104 3100 3096 3093 3090 3088 3086 3083 3087 3090 3093 3098 3103 3107 3114 3117 3121 3125 3129 3132 3133 3136 3140 3144 3148 3149 3149 3150 3152 3153 3155 3157 3157 3155
3147 3145 3140 3135 3130 3126 3122 3118 3115 3111 3106 3102 3098 3094 3090 3088 3085 3084 3080 3081 3084 3089 3094 3099 3102 3106 3114 3116 3120 3122 3124 3128 3132 3136 3140 3144 3145 3146 3148 3150 3151 3151 3152 3153 3152
3145 3143 3141 3136 3131 3126 3121 3117 3114 3111 3105 3100 3096 3094 3091 3087 3083 3081 3078 3077 3079 3085 3090 3094 3097 3101 3106 3108 3108 3114 3121 3125 3128 3133 3135 3139 3141 3143 3145 3147 3147 3150 3151 3149 3148
3144 3142 3140 3137 3132 3126 3121 3117 3115 3110 3104 3100 3096 3092 3089 3084 3081 3079 3077 3075 3078 3082 3085 3090 3093 3094 3100 3107 3113 3118 3121 3125 3127 3130 3133 3134 3137 3139 3141 3143 3144 3144 3144 3145 3145
3142 3139 3138 3136 3133 3128 3120 3114 3108 3106 3103 3099 3096 3093 3089 3086 3083 3082 3080 3080 3081 3082 3086 3091 3091 3097 3102 3108 3112 3116 3119 3122 3125 3127 3130 3132 3132 3136 3137 3137 3138 3138 3140 3140 3141
3140 3138 3136 3135 3133 3130 3122 3117 3110 3105 3103 3100 3098 3094 3092 3090 3086 3084 3083 3083 3083 3084 3086 3089 3093 3098 3101 3106 3109 3113 3115 3118 3122 3124 3126 3129 3130 3130 3131 3131 3132 3134 3135 3136 3137
3137 3136 3135 3133 3133 3130 3124 3118 3111 3105 3104 3103 3099 3097 3095 3091 3089 3087 3084 3085 3084 3085 3087 3090 3094 3097 3100 3104 3108 3108 3112 3117 3119 3121 3123 3126 3126 3124 3124 3125 3126 3128 3129 3130 3131
3135 3133 3133 3130 3129 3129 3126 3119 3113 3107 3107 3105 3101 3098 3094 3093 3091 3088 3086 3086 3084 3084 3088 3090 3091 3094 3097 3100 3105 3106 3110 3114 3117 3119 3120 3122 3125 3119 3120 3120 3121 3123 3124 3126 3127
3133 3130 3130 3130 3128 3128 3125 3120 3115 3113 3108 3105 3100 3096 3094 3092 3090 3088 3085 3086 3086 3084 3086 3088 3090 3092 3095 3098 3102 3105 3108 3112 3115 3116 3118 3117 3118 3115 3114 3116 3117 3119 3121 3123 3123
3131 3129 3127 3125 3127 3126 3124 3121 3117 3114 3111 3106 3099 3095 3095 3092 3090 3087 3086 3087 3088 3087 3085 3086 3088 3091 3092 3094 3098 3101 3104 3112 3119 3117 3114 3112 3115 3111 3111 3112 3115 3116 3118 3119 3119
3128 3127 3125 3123 3123 3124 3124 3122 3118 3115 3110 3105 3099 3095 3095 3094 3092 3089 3088 3089 3089 3088 3088 3087 3093 3091 3091 3093 3095 3098 3101 3104 3109 3112 3108 3109 3107 3105 3107 3110 3111 3113 3114 3115 3116
3126 3124 3123 3122 3121 3122 3124 3121 3120 3115 3112 3107 3103 3096 3097 3096 3094 3091 3089 3090 3090 3090 3090 3090 3090 3090 3091 3093 3094 3096 3098 3101 3101 3103 3104 3104 3103 3102 3103 3105 3108 3110 3111 3112 3113
3124 3122 3120 3120 3119 3120 3122 3121 3118 3117 3113 3109 3106 3102 3099 3096 3095 3093 3091 3091 3091 3091 3090 3090 3087 3088 3090 3092 3094 3094 3098 3100 3100 3104 3106 3101 3100 3097 3098 3101 3105 3107 3108 3109 3110
3122 3121 3119 3119 3118 3118 3119 3118 3116 3114 3113 3111 3106 3103 3101 3098 3096 3094 3093 3092 3090 3088 3090 3090 3090 3090 3090 3091 3093 3094 3095 3097 3099 3100 3100 3103 3097 3095 3097 3100 3104 3106 3107 3107 3109
3118 3117 3117 3117 3118 3115 3115 3115 3115 3112 3110 3110 3107 3104 3101 3099 3096 3096 3094 3092 3091 3090 3090 3090 3089 3088 3088 3089 3091 3093 3094 3096 3097 3098 3097 3096 3096 3095 3097 3099 3102 3104 3105 3106 3106
3113 3113 3113 3112 3112 3112 3112 3111 3112 3111 3109 3109 3107 3105 3103 3100 3099 3096 3094 3093 3090 3090 3089 3090 3090 3090 3089 3091 3090 3090 3091 3093 3094 3095 3095 3096 3095 3095 3096 3097 3099 3101 3102 3103 3104
3110 3109 3109 3109 3109 3109 3109 3109 3109 3109 3107 3106 3105 3104 3102 3100 3098 3095 3094 3093 3091 3088 3088 3089 3088 3090 3090 3088 3088 3088 3089 3091 3092 3093 3093 3092 3092 3092 3093 3094 3096 3098 3098 3098 3097
3105 3104 3104 3105 3106 3106 3106 3107 3106 3105 3105 3104 3102 3103 3101 3100 3097 3094 3093 3092 3090 3089 3089 3090 3089 3089 3089 3088 3087 3087 3087 3088 3089 3091 3091 3091 3090 3090 3091 3092 3093 3093 3093 3093 3093
3102 3103 3102 3102 3102 3103 3103 3104 3103 3103 3103 3101 3101 3100 3099 3097 3097 3094 3092 3092 3090 3089 3088 3089 3089 3088 3087 3087 3086 3086 3086 3086 3087 3087 3087 3087 3087 3088 3088 3088 3089 3090 3090 3089 3088
3096 3096 3096 3096 3098 3099 3100 3099 3100 3099 3100 3099 3098 3098 3096 3095 3093 3092 3090 3089 3089 3089 3088 3088 3087 3087 3086 3084 3084 3084 3082 3082 3083 3083 3085 3084 3085 3085 3086 3087 3087 3086 3085 3084 3082